Regional Weather Roundup
Issued by NWS

Home | Current Version | Previous Version | Graphics & Text | Print | Product List | Glossary On
Versions: 1 2 3 4 5 6 7 8 9 10 11 12 13 14 15 16 17 18 19 20 21 22 23 24 25 26 27 28 29 30 31 32 33 34 35 36 37 38 39 40 41 42 43 44 45 46 47 48 49 50
791
ASUS45 KCYS 221010
RWRWY

WYOMING REGIONAL WEATHER ROUNDUP
NATIONAL WEATHER SERVICE CHEYENNE WY
300 AM MST SUN JAN 22 2017

NOTE:  "FAIR" INDICATES FEW OR NO CLOUDS BELOW 12,000 FEET
WITH NO SIGNIFICANT WEATHER AND/OR OBSTRUCTIONS TO VISIBILITY.

WYZ001-221100-
YELLOWSTONE NATIONAL PARK

CITY           SKY/WX    TMP DP  RH WIND       PRES   REMARKS
LK YELLOWSTONE   N/A     18  14  84 VRB5      29.83R WCI  11
W YELLOWSTONE  NOT AVBL

$$
WYZ002>013-054>058-071-098>099-221100-
NORTHERN WYOMING

CITY           SKY/WX    TMP DP  RH WIND       PRES   REMARKS
JACKSON        CLOUDY    25  21  86 S16       29.86R WCI  12
CODY           FAIR      33  16  49 W10G20    29.78R WCI  25
GREYBULL       FAIR      14  10  84 NW3       29.82R
WORLAND        CLOUDY    13  12  96 CALM      29.82R
SHERIDAN       CLOUDY    27  17  66 SW6       29.76R WCI  20
BUFFALO        FAIR      28  15  58 NW3       29.75R
GILLETTE       CLOUDY    26  21  81 W7        29.74R WCI  18
HULETT         FAIR      27  23  86 SW9       29.74R WCI  17
NEWCASTLE      FAIR      19  18  93 N10       29.76R WCI   8

$$
WYZ014>020-022>026-101>103-221100-
CENTRAL WYOMING

CITY           SKY/WX    TMP DP  RH WIND       PRES   REMARKS
BIG PINEY      CLOUDY     7   4  87 E3        29.90R
PINEDALE       CLOUDY     5   3  92 CALM      29.90R
DUBOIS         NOT AVBL
LANDER         FAIR      18  14  84 N6        29.81R WCI  10
RIVERTON       FAIR     N/A N/A N/A SW5       29.81R
CASPER         CLOUDY    27  18  69 SW14      29.78R WCI  16
DOUGLAS        FAIR      23  16  74 NW9       29.78R WCI  13

$$
WYZ021-027>030-104>119-221100-
SOUTHERN WYOMING

CITY           SKY/WX    TMP DP  RH WIND       PRES   REMARKS
EVANSTON       CLOUDY    18  13  80 SW12      29.94R WCI   5
FORT BRIDGER   SUNNY     21  18  86 W15       29.95  WCI   8
ROCK SPRINGS   FAIR      19  14  81 W22       29.92R WCI   2
RAWLINS        FAIR      19  14  81 SW14      29.86R WCI   6
LARAMIE        CLOUDY    17  13  84 E3        29.78R
CHEYENNE       FAIR      29  15  56 W12       29.75R WCI  19
TORRINGTON     FAIR      26  20  77 NW8       29.76R WCI  18

$$




USA.gov is the U.S. government's official web portal to all federal, state and local government web resources and services.